{"data":{"norad_id":56066,"epoch":"2026-05-25T04:37:41.377728Z","epoch_age_seconds":62319,"freshness":"FRESH","line1":"1 56066U 23043W   26145.19284002  .00000009  00000+0 -94227-5 0  9997","line2":"2 56066  87.9108 233.3379 0002772  92.4255 267.7193 13.16596256155968","mean_motion":13.16596256,"eccentricity":0.0002772,"inclination_deg":87.9108,"raan_deg":233.3379,"arg_perigee_deg":92.4255,"mean_anomaly_deg":267.7193,"bstar":-9.4227e-6,"rev_number":15596,"period_min":109.37293748464,"perigee_km":1195.6489631278,"apogee_km":1199.8490343255,"semimajor_km":7575.8859987267,"source":"CELESTRAK","updated_at":"2026-05-25T13:38:22.704097Z"}}